Regional Weather Roundup
Issued by NWS

Home | Current Version | Previous Version | Graphics & Text | Print | Product List | Glossary On
Versions: 1 2 3 4 5 6 7 8 9 10 11 12 13 14 15 16 17 18 19 20 21 22 23 24 25 26 27 28 29 30 31 32 33 34 35 36 37 38 39 40 41 42 43 44 45 46 47 48 49 50
000
ASUS43 KDTX 020410
RWRMI
MICHIGAN HOURLY REGIONAL WEATHER ROUNDUP
NATIONAL WEATHER SERVICE DETROIT/PONTIAC MI
1200 AM EDT THU OCT 02 2014

NOTE: "FAIR" INDICATES FEW OR NO CLOUDS BELOW 12,000 FEET WITH NO
SIGNIFICANT WEATHER AND/OR OBSTRUCTION TO VISIBILITY.

MIZ047>049-052>055-059>063-066>070-074>076-081>083-020500-
SOUTHEAST LOWER MICHIGAN

CITY           SKY/WX    TMP DP  RH WIND       PRES   REMARKS
ADRIAN         CLEAR     53  51  93 CALM      30.05R FOG
ALMA           MOCLDY    46  46  97 CALM      30.03S FOG
ANN ARBOR      PTCLDY    48  46  93 CALM      30.04S FOG
BAD AXE        MOCLDY    55  55 100 CALM      30.06S FOG
CARO           CLOUDY    57  56  97 CALM      30.05R FOG
DETROIT CITY   CLEAR     59  57  93 SE3       30.07R FOG
DETROIT        CLOUDY    57  55  93 CALM      30.05R FOG
FLINT          CLEAR     55  51  86 S3        30.04F
GROSSE ILE     MOCLDY    59  57  94 CALM      30.03S FOG
HILLSDALE      CLEAR     55  55  99 SE5       30.03S FOG
HOWELL         PTCLDY    49  48  97 CALM      30.04R FOG

CITY           SKY/WX    TMP DP  RH WIND       PRES   REMARKS
JACKSON        CLEAR     52  49  89 SE5       30.04R
LAMBERTVILLE   CLEAR     50  48  93 CALM      30.04S FOG
LANSING        MOCLDY    54  49  83 SE3       30.04R
LAPEER         CLOUDY    55  54  95 CALM      30.06R FOG
MASON          PTCLDY    51  49  93 CALM      30.04R
MONROE         PTCLDY    52  50  93 CALM      30.03R FOG
MT. CLEMENS    CLEAR     59  59 100 S3        30.03R
PONTIAC        MOCLDY    59  55  87 SE6       30.04S FOG
PORT HURON     PTCLDY    57  57 100 CALM      30.04F FOG
TRI CITIES     CLEAR     57  52  83 S5        30.05R
TROY           CLEAR     59  57  92 CALM      30.07R FOG
SAGINAW HB     CLEAR     54  54 100 CALM      30.04R FOG
$$
MIZ043>046-050>051-056>058-064>065-071>073-077>080-020500-
SOUTHWEST LOWER MICHIGAN

CITY           SKY/WX    TMP DP  RH WIND       PRES   REMARKS
BATTLE CREEK   MOCLDY    56  48  74 SE5       30.01F
BENTON HARBOR  PTCLDY    59  50  72 SE12      29.95F
BIG RAPIDS     PTCLDY    48  48 100 W6        30.01R FOG
COLDWATER      CLEAR     56  50  80 SE6       30.01S
FREMONT        FAIR      54  51  89 E5        29.98F
GRAND RAPIDS   MOCLDY    55  51  86 SE3       30.00F
IONIA          FAIR      53  49  86 SE6       30.01F
LUDINGTON      MOCLDY    55  52  91 SE6       29.96F
MARSHALL       PTCLDY    52  48  88 SE3       30.02S
MOUNT PLEASANT FOG       47  47  98 CALM      30.02F VSB 3/4
MUSKEGON       CLEAR     54  49  83 SE7       29.97F
SOUTH HAVEN    PTCLDY    58  52  80 SE7       29.97S
$$
MIZ016>042-020500-
NORTHERN LOWER MICHIGAN

CITY           SKY/WX    TMP DP  RH WIND       PRES   REMARKS
ALPENA         PTCLDY    54  54 100 SE6       30.03F FOG
BEAVER ISLAND  CLOUDY    54  53  97 CALM      29.99R FOG
BELLAIRE       PTCLDY    48  47  95 CALM      30.00R FOG
CADILLAC       PTCLDY    53  49  89 SE5       29.99F
CHARLEVOIX     MOCLDY    53  53  98 CALM      30.02R
FRANKFORT      MOCLDY    58  50  74 E3        29.97F
GAYLORD        CLOUDY    53  52  96 S12       30.01S FOG
GRAYLING       FOG       54  54 100 E3        30.02S VSB 1/4
HARBOR SPRINGS CLEAR     53  52  96 NE5       29.99F FOG
HOUGHTON LAKE  FOG       54  54 100 SE6       30.03S VSB 1
OSCODA         PTCLDY    54  54 100 CALM      30.03S FOG
PELLSTON       CLOUDY    56  55  97 S9        30.00S FOG
ROGERS CITY    CLOUDY    57  57  99 SE7       30.03F FOG
TRAVERSE CITY  MOCLDY    53  49  86 CALM      29.98R
$$
MIZ007>008-015-020500-
EASTERN UPPER MICHIGAN

CITY           SKY/WX    TMP DP  RH WIND       PRES   REMARKS
MACKINAC ISLAN CLOUDY    57  56  99 SE7       30.00S FOG
NEWBERRY       MOCLDY    56  54  95 S9        29.96R
S. S. MARIE    CLOUDY    57  55  93 SE9       30.00S FOG
MUNISING         N/A     57  51  80 S8G18     29.91F
$$
MIZ004>006-011>014-085-020500-
CENTRAL UPPER MICHIGAN

CITY           SKY/WX    TMP DP  RH WIND       PRES   REMARKS
MANISTIQUE     CLOUDY    55  54  94 S8        29.96S
SAWYER-GWINN   LGT RAIN  52  49  90 S15       29.92R
$$
MIZ001>003-009>011-084-020500-
WESTERN UPPER MICHIGAN

CITY           SKY/WX    TMP DP  RH WIND       PRES   REMARKS
IRON MOUNTAIN  LGT RAIN  53  51  93 S9        29.91R
HOUGHTON       CLOUDY    54  50  86 S8        29.85S
COPPER HARBOR    N/A     54  51  90 VRB6      29.85S
$$

ABBREVIATIONS USED IN REMARKS
   TC - TEMPERATURE IN CELSIUS
  WCI - WIND CHILL INDEX
   HX - HEAT INDEX
  VSB - VISIBILITY



USA.gov is the U.S. government's official web portal to all federal, state and local government web resources and services.